Content
SEND FEEDBACK

Daily
Averages
Monthly
Summary
United States of America

DEDEDO, GUAM


Home > North America > United States > Guam
Elevation: 364 feet     Latitude: 13 33N     Longitude: 144 49E

WEATHER
 
SELECT A DAY
Number of Records: 209,133;   Date Range: 1/1/95 - 8/28/14
 
SHARE

PRINT THIS DATA

[ ← Previous Day ]
WEATHER ALMANAC - APRIL 23, 2013
[ Next Day → ]
[ °C ]   °F
Weather ElementAverageHighLow
Temperature85.8 °F89.6 °F (11:02 am)81 °F (1:54 am)
Dewpoint72.7 °F75 °F (1:54 am)70 °F (10:54 pm)
Humidity65.3 %82 % (1:54 am)55 % (1:54 pm)
Barometer29.90 in29.97 in (11:02 am)29.80 in (4:54 pm)
Wind Speed12.1 mph19.6 mph (11:02 am)
Wind Gust26.5 mph (10:54 am)
Weather ElementAverage
Visibility10 mi
Wind DirectionENE (81.5 °)

Weather ElementTotal
Precipitation---
Cooling Degree Days20.3 (Base 65)
Growing Degree Days35.3 (Base 50)
Averaged from 27 records on April 23, 2013
WEATHER CONDITIONS BREAKOUT
WIND DIRECTION BREAKOUT
WEATHER BY HOUR - APRIL 23, 2013
[ °C ]   °F
Local TimeTemperatureDewpointHumidityBarometerVisibilityWind DirectionWind SpeedGust SpeedPrecipitationEventsConditions
1:54 AM81.0 °F75.0 °F82 %29.93 in10.0 miEast (80°)6.9 mphClear
3:54 AM81.0 °F75.0 °F82 %29.91 in10.0 miENE (70°)5.8 mphClear
4:54 AM81.0 °F73.9 °F79 %29.91 in10.0 miENE (70°)5.8 mphClear
5:54 AM81.0 °F75.0 °F82 %29.93 in10.0 miEast (80°)5.8 mphScattered Clouds
6:54 AM82.0 °F75.0 °F79 %29.94 in10.0 miEast (80°)6.9 mphClear
7:54 AM84.9 °F73.9 °F69 %29.96 in10.0 miEast (80°)13.8 mphClear
8:54 AM87.1 °F73.9 °F65 %29.96 in10.0 miEast (80°)16.1 mphPartly Cloudy
9:54 AM88.0 °F73.0 °F61 %29.95 in10.0 miEast (80°)16.1 mph23.0 mphPartly Cloudy
10:54 AM89.1 °F73.9 °F61 %29.95 in10.0 miEast (80°)17.3 mph26.5 mphScattered Clouds
11:02 AM89.6 °F73.4 °F59 %29.97 in10.0 miENE (70°)19.6 mph26.5 mphMostly Cloudy
11:09 AM89.6 °F73.4 °F59 %29.97 in10.0 miEast (80°)18.4 mph26.5 mphScattered Clouds
11:54 AM89.1 °F73.0 °F59 %29.94 in10.0 miEast (100°)13.8 mph26.5 mphScattered Clouds
12:54 PM89.1 °F72.0 °F57 %29.91 in10.0 miEast (90°)16.1 mph21.9 mphScattered Clouds
1:54 PM89.1 °F71.1 °F55 %29.89 in10.0 miEast (90°)18.4 mph24.2 mphPartly Cloudy
2:54 PM89.1 °F71.1 °F55 %29.87 in10.0 miEast (100°)15.0 mph24.2 mphPartly Cloudy
3:43 PM87.8 °F71.6 °F58 %29.88 in10.0 miEast (90°)13.8 mphMostly Cloudy
3:54 PM88.0 °F72.0 °F59 %29.81 in10.0 miEast (90°)12.7 mph23.0 mphMostly Cloudy
4:19 PM87.8 °F71.6 °F58 %29.87 in10.0 miEast (90°)11.5 mphScattered Clouds
4:52 PM87.8 °F71.6 °F58 %29.87 in10.0 miEast (90°)12.7 mphMostly Cloudy
4:54 PM87.1 °F72.0 °F61 %29.80 in10.0 miEast (80°)12.7 mphScattered Clouds
5:54 PM86.0 °F73.0 °F65 %29.81 in10.0 miEast (80°)12.7 mphPartly Cloudy
6:54 PM84.9 °F73.0 °F67 %29.83 in10.0 miENE (70°)8.1 mphPartly Cloudy
7:54 PM84.0 °F73.0 °F69 %29.86 in10.0 miEast (80°)8.1 mphClear
8:54 PM82.9 °F71.1 °F67 %29.88 in10.0 miEast (90°)9.2 mphClear
9:54 PM84.0 °F71.1 °F65 %29.91 in10.0 miENE (60°)10.4 mphScattered Clouds
10:54 PM82.9 °F70.0 °F65 %29.91 in10.0 miEast (80°)9.2 mphClear
11:54 PM82.9 °F71.1 °F67 %29.90 in10.0 miENE (70°)9.2 mphPartly Cloudy
Hourly data recorded from PGUM, located miles away from Dededo, Guam







STORIES FROM OUR PARTNERS